FW2048 Weather Reports


time (UTC)temp
C
wind
direction
speed
KPH
gust
KPH
rain 1hr
cm
rain 24hr
cm
rain mn
cm
humidity
%
barometer
mb
20260505053038 16 0 0.0 0.0 0.00 0.00 0.00 78 1001.8
20260505051538 16 0 0.0 0.0 0.00 0.00 0.00 75 1001.9
20260505041535 17 0 0.0 0.0 0.00 0.00 0.00 73 1002.4
20260505040044 17 0 0.0 0.0 0.00 0.00 0.00 71 1002.6
20260505034540 18 0 0.0 0.0 0.00 0.00 0.00 70 1002.8
20260505033042 18 0 0.0 0.0 0.00 0.00 0.00 69 1002.8
20260505031555 18 0 0.0 0.0 0.00 0.00 0.00 69 1002.8
20260505030047 18 0 0.0 0.0 0.00 0.00 0.00 68 1002.6
20260505024550 18 0 0.0 0.0 0.00 0.00 0.00 68 1002.4
20260505023047 18 0 0.0 0.0 0.00 0.00 0.00 68 1002.2
20260505021541 19 0 0.0 0.0 0.00 0.00 0.00 65 1002.0
20260505020038 18 0 0.0 0.0 0.00 0.00 0.00 67 1001.7
20260505014559 18 0 0.0 0.0 0.00 0.00 0.00 67 1001.4
20260505013044 20 0 0.0 0.0 0.00 0.00 0.00 64 1001.2
20260505011549 20 0 0.0 0.0 0.00 0.00 0.00 60 1001.1
20260505010041 21 0 0.0 0.0 0.00 0.00 0.00 61 1001.2
20260505004539 21 0 0.0 0.0 0.00 0.00 0.00 61 1001.0
20260505003044 22 0 0.0 0.0 0.00 0.00 0.00 57 1001.0
20260505001546 22 0 0.0 0.0 0.00 0.00 0.00 54 1000.7
20260505000047 23 0 0.0 0.0 0.00 0.00 0.00 52 1000.6
20260504234541 24 0 0.0 0.0 0.00 0.00 0.00 51 1000.8
20260504233040 24 0 0.0 0.0 0.00 0.00 0.00 50 1000.8
20260504231540 25 0 0.0 0.0 0.00 0.00 0.00 49 1000.9
20260504230049 25 0 0.0 0.0 0.00 0.00 0.00 49 1000.9
20260504224547 25 0 0.0 0.0 0.00 0.00 0.00 47 1000.9
20260504223039 25 0 0.0 0.0 0.00 0.00 0.00 48 1000.9
20260504221539 26 0 0.0 0.0 0.00 0.00 0.00 48 1000.9
20260504220045 26 0 0.0 0.0 0.00 0.00 0.00 47 1001.2
20260504214552 26 0 0.0 0.0 0.00 0.00 0.00 46 1001.2
20260504213039 26 0 0.0 0.0 0.00 0.00 0.00 48 1001.3
20260504211538 26 0 0.0 0.0 0.00 0.00 0.00 48 1001.5
20260504210053 26 0 0.0 0.0 0.00 0.00 0.00 49 1001.5
20260504204558 26 0 0.0 0.0 0.00 0.00 0.00 46 1001.8
20260504203049 26 0 0.0 0.0 0.00 0.00 0.00 47 1001.9
20260504201539 26 0 0.0 0.0 0.00 0.00 0.00 47 1002.2
20260504200047 26 0 0.0 0.0 0.00 0.00 0.00 46 1002.3
20260504194545 26 0 0.0 0.0 0.00 0.00 0.00 45 1002.4
20260504193044 26 0 0.0 0.0 0.00 0.00 0.00 52 1002.6
20260504191542 26 0 0.0 0.0 0.00 0.00 0.00 47 1002.6
20260504190038 26 0 0.0 0.0 0.00 0.00 0.00 46 1002.8
20260504184546 25 0 0.0 0.0 0.00 0.00 0.00 52 1002.9
20260504183045 25 0 0.0 0.0 0.00 0.00 0.00 47 1003.0
20260504181543 25 0 0.0 0.0 0.00 0.00 0.00 47 1003.0
20260504180043 25 0 0.0 0.0 0.00 0.00 0.00 49 1003.2
20260504174538 25 0 0.0 0.0 0.00 0.00 0.00 49 1003.3
20260504173041 24 0 0.0 0.0 0.00 0.00 0.00 50 1003.5
20260504171546 24 0 0.0 0.0 0.00 0.00 0.00 51 1003.6
20260504081556 15 0 0.0 0.0 0.00 0.00 0.00 72 1005.5